TimeEDT,TemperatureF,Dew PointF,Humidity,Sea Level PressureIn,VisibilityMPH,Wind Direction,Wind SpeedMPH,Gust SpeedMPH,PrecipitationIn,Events,Conditions,WindDirDegrees,DateUTC
12:54 AM,43.0,39.0,86,30.24,-9999.0,Calm,Calm,-,N/A,,Unknown,0,2013-05-27 04:54:00
1:54 AM,39.9,37.0,89,30.23,-9999.0,Calm,Calm,-,N/A,,Unknown,0,2013-05-27 05:54:00
2:54 AM,39.0,36.0,89,30.24,-9999.0,Calm,Calm,-,N/A,,Unknown,0,2013-05-27 06:54:00
3:54 AM,39.9,37.0,89,30.24,-9999.0,Calm,Calm,-,N/A,,Unknown,0,2013-05-27 07:54:00
4:54 AM,37.9,36.0,93,30.25,-9999.0,Calm,Calm,-,N/A,,Unknown,0,2013-05-27 08:54:00
5:54 AM,37.9,36.0,93,30.26,-9999.0,Calm,Calm,-,N/A,,Unknown,0,2013-05-27 09:54:00
6:54 AM,41.0,39.0,93,30.26,-9999.0,Calm,Calm,-,N/A,,Unknown,0,2013-05-27 10:54:00
7:54 AM,48.9,41.0,74,30.27,-9999.0,Calm,Calm,-,N/A,,Unknown,0,2013-05-27 11:54:00
8:54 AM,55.9,39.0,53,30.26,-9999.0,Variable,3.5,-,N/A,,Unknown,0,2013-05-27 12:54:00
9:54 AM,61.0,39.9,46,30.25,-9999.0,Calm,Calm,-,N/A,,Unknown,0,2013-05-27 13:54:00
10:54 AM,64.0,39.0,40,30.24,-9999.0,Variable,3.5,-,N/A,,Unknown,0,2013-05-27 14:54:00
11:54 AM,66.9,36.0,32,30.22,-9999.0,West,6.9,-,N/A,,Unknown,270,2013-05-27 15:54:00
12:54 PM,71.1,37.0,29,30.19,-9999.0,Variable,5.8,-,N/A,,Unknown,0,2013-05-27 16:54:00
1:54 PM,73.0,35.1,25,30.17,-9999.0,North,8.1,-,N/A,,Unknown,350,2013-05-27 17:54:00
2:54 PM,73.9,35.1,24,30.16,-9999.0,Variable,3.5,-,N/A,,Unknown,0,2013-05-27 18:54:00
3:54 PM,73.9,35.1,24,30.14,-9999.0,Calm,Calm,-,N/A,,Unknown,0,2013-05-27 19:54:00
4:54 PM,73.9,33.1,22,30.13,-9999.0,Calm,Calm,-,N/A,,Unknown,0,2013-05-27 20:54:00
5:54 PM,73.0,37.0,27,30.14,-9999.0,Variable,5.8,-,N/A,,Unknown,0,2013-05-27 21:54:00
6:54 PM,69.1,36.0,30,30.14,-9999.0,SW,5.8,-,N/A,,Unknown,220,2013-05-27 22:54:00
7:54 PM,62.1,44.1,52,30.14,-9999.0,Calm,Calm,-,N/A,,Unknown,0,2013-05-27 23:54:00
8:54 PM,57.0,46.0,67,30.16,-9999.0,Calm,Calm,-,N/A,,Unknown,0,2013-05-28 00:54:00
9:54 PM,55.0,46.9,74,30.17,-9999.0,Calm,Calm,-,N/A,,Unknown,0,2013-05-28 01:54:00
10:54 PM,53.1,48.0,83,30.18,-9999.0,Calm,Calm,-,N/A,,Unknown,0,2013-05-28 02:54:00
11:54 PM,53.1,48.0,83,30.19,-9999.0,Calm,Calm,-,N/A,,Unknown,0,2013-05-28 03:54:00